[[{"header":{"parameterUnit":"m.s-1","parameterCategory":1,"la1":30.2991,"la2":30.254,"lo1":-89.0895,"lo2":-89.0444,"dy":0.0017,"dx":0.0017,"nx":28,"ny":28,"refTime":"2024-05-13T03:00:00:Z","depth":0,"parameterNumber":2,"parameterNumberName":"U-component_of_WINDS"},"data":[0,0,0,0,0,0,0,0,0,0,0,0,0,0,0,0,0,0,0,0,0,0,0,0,0,0,0,0,0,0,0,0,0,0,0,0,0,0,0,0,0,0,0,0,0,0,0,0,0,0,0,0,0,0,0,0,0,0,2.7118,2.7116,0,2.6954,2.6952,2.695,2.6938,2.694,2.6942,2.6944,2.676,2.6754,2.6747,0,0,0,0,0,0,0,0,0,0,0,0,0,2.7406,2.74,2.7118,2.7116,2.7114,2.6954,2.6952,2.695,2.6938,2.694,2.6943,2.6945,2.6762,2.6754,2.6746,0,0,0,0,0,0,0,0,0,0,0,0,0,2.7265,2.7399,2.7119,2.709,2.7085,2.6955,2.6952,2.6949,2.6938,2.694,2.6943,2.6946,2.6765,2.6755,2.6745,2.6628,0,0,2.6715,2.6711,0,0,0,0,0,0,0,0,2.7273,2.7254,2.7096,2.7091,2.7086,2.697,2.6986,2.6841,2.6937,2.6993,2.6944,2.6947,2.6826,2.6812,2.6774,2.6619,2.6611,2.6714,2.6708,2.6704,2.6701,0,0,0,0,0,0,0,2.7282,2.7261,2.7053,2.7093,2.7088,2.7079,2.7062,2.6958,2.6895,2.6988,2.6987,2.6969,2.6824,2.6784,2.677,2.6608,2.6714,2.6705,2.6699,2.6695,2.6343,2.634,0,0,0,0,0,0,2.73,2.7269,2.7058,2.7048,2.7189,2.7072,2.7053,2.7004,2.6897,2.6883,2.6967,2.6969,2.6799,2.6781,2.6763,2.6615,2.6704,2.6694,2.6689,2.6346,2.6342,2.6338,0,0,0,0,0,0,2.7306,2.7281,2.7064,2.7158,2.713,2.7064,2.7009,2.6999,2.6959,2.6881,2.6868,2.6938,2.6801,2.6777,2.6661,2.6608,2.669,2.6681,2.635,2.6345,2.634,2.6319,0,0,0,0,0,0,2.7315,2.7284,2.7242,2.7158,2.7125,2.697,2.7006,2.6994,2.6944,2.6945,2.685,2.6837,2.6801,2.6676,2.6652,2.6596,2.6673,2.6354,2.6348,2.6342,2.6324,2.6314,2.6305,0,0,0,0,0,2.7325,2.724,2.724,2.7215,2.7073,2.6968,2.6948,2.6914,2.694,2.6894,2.6843,2.684,2.6619,2.6665,2.6637,2.6577,2.6358,2.635,2.6342,2.6328,2.6316,2.6306,0,0,0,0,0,0,2.7315,2.7229,2.7228,2.7115,2.7049,2.6966,2.6908,2.6902,2.6824,2.6828,2.6784,2.6762,2.6647,2.6601,2.6653,2.6455,2.649,2.6477,2.6489,2.6477,2.6468,2.6479,2.6665,0,0,0,0,0,2.7301,2.7228,2.7154,2.7061,2.7029,2.6974,2.6927,2.6907,2.6835,2.6805,2.6746,2.6672,2.6585,2.6529,2.6446,2.6319,2.6294,2.6263,2.6254,2.6247,2.6234,2.6158,2.6142,2.6313,2.6313,2.6314,0,0,2.7269,2.7212,2.7168,2.7058,2.7005,2.6924,2.6951,2.6865,2.6803,2.679,2.6678,2.6632,2.6546,2.6423,2.6366,2.6381,2.6182,2.6237,2.6232,2.6223,2.6149,2.6133,2.6118,2.6308,2.6309,2.631,0,0,2.7168,2.7121,2.7037,2.6984,2.6905,2.6869,2.6848,2.6766,2.6736,2.6624,2.6611,2.6534,2.6388,2.6326,2.6275,2.615,2.6142,2.6124,2.6073,2.6,2.5986,2.5974,2.5924,2.5908,2.6113,2.6112,2.6112,0,2.7136,2.7021,2.6992,2.6907,2.6857,2.6847,2.6757,2.6705,2.6601,2.6563,2.6583,2.6398,2.6339,2.6199,2.6169,2.613,2.61,2.6133,2.5992,2.5979,2.5967,2.5919,2.5901,2.6111,2.6111,2.6111,2.6111,0,2.6983,2.6902,2.6843,2.6747,2.669,2.6603,2.6556,2.65,2.6484,2.6444,2.6327,2.6257,2.6157,2.6123,2.6105,2.5979,2.5991,2.6002,2.6035,2.5949,2.5903,2.5885,2.6108,2.6108,2.6109,2.611,0,0,2.687,2.6761,2.6739,2.6694,2.6606,2.6539,2.645,2.6357,2.6308,2.6236,2.6155,2.6031,2.6041,2.5983,2.5958,2.5894,2.5793,2.5912,2.5909,2.5888,2.5644,2.5633,2.5613,2.5789,2.5786,2.5783,2.565,0,2.6756,2.6603,2.6574,2.6437,2.6358,2.6347,2.6268,2.6202,2.6162,2.6085,2.6039,2.595,2.5972,2.5937,2.5874,2.582,2.5743,2.5829,2.5707,2.5703,2.5725,2.559,2.5579,2.5456,2.5632,2.5629,2.5627,0,2.6603,2.6532,2.6388,2.6309,2.6274,2.6205,2.6115,2.6045,2.5967,2.5942,2.5878,2.586,2.5759,2.5801,2.5659,2.5718,2.5666,2.5632,2.5626,2.5609,2.5657,2.5565,2.5417,2.5397,2.5599,2.5601,2.5603,0,2.653,2.6397,2.6294,2.6256,2.6161,2.6111,2.6068,2.5995,2.594,2.586,2.5823,2.5732,2.568,2.5606,2.5561,2.5597,2.542,2.5459,2.5391,2.5391,2.5351,2.5353,2.5188,2.5325,2.5325,2.5326,2.5326,0,2.6403,2.6314,2.6259,2.6195,2.6093,2.6059,2.5957,2.5914,2.5848,2.5771,2.5755,2.5681,2.5628,2.5545,2.5509,2.5393,2.5371,2.5343,2.5333,2.5342,2.5345,2.5304,2.5309,2.5321,2.5322,2.5323,2.5324,0,2.6302,2.6263,2.6148,2.6069,2.6047,2.5975,2.5904,2.5837,2.5799,2.57,2.5674,2.561,2.5511,2.5461,2.5336,2.5312,2.518,2.5178,2.5207,2.5202,2.5135,2.514,2.4934,2.4902,2.5066,2.5064,2.5063,0,2.6223,2.6155,2.6069,2.6019,2.5976,2.5895,2.584,2.5802,2.5744,2.565,2.5593,2.5496,2.5415,2.5256,2.5194,2.5098,2.509,2.5024,2.5074,2.5084,2.5082,2.5085,2.5075,2.5013,2.5012,2.5011,2.501,0,2.6083,2.6067,2.5992,2.5908,2.5844,2.5775,2.5706,2.5664,2.5614,2.5549,2.545,2.5388,2.5263,2.5162,2.5061,2.501,2.4998,2.4995,2.4973,2.4979,2.4997,2.4981,2.5178,2.4999,2.5,2.5001,2.5001,2.5002,2.5987,2.5925,2.5855,2.5769,2.5715,2.5651,2.5585,2.5538,2.5458,2.5356,2.5337,2.5231,2.5151,2.5015,2.4961,2.4873,2.4886,2.4855,2.4847,2.4838,2.4833,2.5015,2.4855,2.4855,2.4855,2.4855,2.4856,0,2.5842,2.5797,2.572,2.5627,2.5558,2.5561,2.5484,2.5425,2.5334,2.5263,2.5185,2.5069,2.4971,2.4903,2.4802,2.4745,2.4736,2.4719,2.472,2.4707,2.483,2.4857,2.4727,2.4727,2.4727,2.4727,2.4727,2.4727,2.5759,2.5653,2.5628,2.5492,2.5446,2.5347,2.5302,2.524,2.5184,2.5057,2.4978,2.4936,2.4864,2.4758,2.4666,2.4648,2.4609,2.4591,2.4571,2.4686,2.4699,2.4712,2.4737,2.4584,2.4584,2.4455,2.4454,2.4453]},{"header":{"parameterUnit":"m.s-1","parameterCategory":1,"la1":30.2991,"la2":30.254,"lo1":-89.0895,"lo2":-89.0444,"dy":0.0017,"dx":0.0017,"nx":28,"ny":28,"refTime":"2024-05-13T03:00:00:Z","depth":0,"parameterNumber":3,"parameterNumberName":"V-component_of_WINDS"},"data":[0,0,0,0,0,0,0,0,0,0,0,0,0,0,0,0,0,0,0,0,0,0,0,0,0,0,0,0,0,0,0,0,0,0,0,0,0,0,0,0,0,0,0,0,0,0,0,0,0,0,0,0,0,0,0,0,0,0,3.7327,3.7327,0,3.7329,3.733,3.733,3.7343,3.7343,3.7343,3.7344,3.7345,3.7344,3.7344,0,0,0,0,0,0,0,0,0,0,0,0,0,3.7333,3.7333,3.7327,3.7327,3.7327,3.7329,3.733,3.733,3.7343,3.7343,3.7343,3.7344,3.7345,3.7344,3.7344,0,0,0,0,0,0,0,0,0,0,0,0,0,3.7332,3.7333,3.7327,3.7334,3.7335,3.7329,3.733,3.733,3.7342,3.7343,3.7343,3.7344,3.7345,3.7344,3.7344,3.7332,0,0,3.7343,3.7343,0,0,0,0,0,0,0,0,3.7332,3.7332,3.7333,3.7334,3.7334,3.7336,3.7332,3.733,3.7342,3.734,3.7344,3.7344,3.7341,3.7341,3.7341,3.7332,3.7332,3.7343,3.7342,3.7342,3.7342,0,0,0,0,0,0,0,3.7332,3.7332,3.7328,3.7333,3.7334,3.7337,3.7337,3.7332,3.7338,3.734,3.7341,3.7341,3.7342,3.7341,3.7341,3.7332,3.7343,3.7342,3.7342,3.7342,3.7312,3.7312,0,0,0,0,0,0,3.7332,3.7332,3.7328,3.7328,3.7335,3.7336,3.7337,3.7335,3.7338,3.7339,3.734,3.7342,3.7341,3.7341,3.7341,3.7326,3.7342,3.7342,3.7342,3.7313,3.7312,3.7312,0,0,0,0,0,0,3.7332,3.7331,3.7328,3.733,3.733,3.7336,3.7334,3.7335,3.7334,3.7338,3.7339,3.7339,3.7342,3.7341,3.7334,3.7326,3.7342,3.7341,3.7314,3.7313,3.7312,3.7297,0,0,0,0,0,0,3.7332,3.7331,3.7327,3.733,3.733,3.7322,3.7333,3.7335,3.7334,3.7335,3.7337,3.7338,3.7342,3.7334,3.7333,3.7326,3.7341,3.7314,3.7313,3.7312,3.7298,3.7296,3.7294,0,0,0,0,0,3.7332,3.7323,3.7327,3.7326,3.7325,3.7321,3.7321,3.7327,3.7333,3.7328,3.7331,3.7338,3.7327,3.7334,3.7333,3.7325,3.7315,3.7314,3.7312,3.7299,3.7296,3.7294,0,0,0,0,0,0,3.7318,3.7323,3.7328,3.732,3.732,3.7323,3.7318,3.7324,3.7322,3.7323,3.733,3.733,3.7321,3.7322,3.7329,3.7313,3.7322,3.7321,3.7313,3.731,3.7308,3.7307,3.7341,0,0,0,0,0,3.7315,3.7311,3.7316,3.7308,3.7308,3.7313,3.7311,3.7316,3.7316,3.7316,3.7318,3.7318,3.7315,3.7312,3.731,3.7298,3.7299,3.7293,3.729,3.7289,3.7287,3.7281,3.7278,3.7308,3.7308,3.7308,0,0,3.7306,3.7309,3.7306,3.7305,3.7306,3.7302,3.7313,3.7308,3.7305,3.7315,3.7308,3.731,3.731,3.73,3.7296,3.7301,3.7279,3.7287,3.7286,3.7285,3.7279,3.7276,3.7274,3.7307,3.7307,3.7307,0,0,3.7289,3.7291,3.7284,3.7285,3.7286,3.7289,3.7287,3.729,3.7291,3.7284,3.7291,3.7287,3.7282,3.7281,3.728,3.7262,3.7268,3.7261,3.7249,3.7243,3.724,3.7238,3.7231,3.7228,3.726,3.726,3.726,0,3.7279,3.7273,3.728,3.7275,3.7273,3.7283,3.7275,3.7275,3.7275,3.7274,3.7279,3.7272,3.7273,3.7263,3.7258,3.7257,3.7255,3.7261,3.724,3.7238,3.7236,3.723,3.7227,3.7259,3.7259,3.7259,3.7259,0,3.726,3.7256,3.725,3.725,3.7248,3.7242,3.7247,3.7244,3.7249,3.7251,3.7243,3.7245,3.7242,3.724,3.7244,3.723,3.7233,3.7239,3.7249,3.7233,3.7226,3.7224,3.7257,3.7258,3.7258,3.7258,0,0,3.7235,3.7238,3.7235,3.7235,3.7236,3.7233,3.7227,3.7224,3.7222,3.7221,3.7216,3.721,3.7216,3.7215,3.7219,3.7213,3.7197,3.722,3.722,3.7215,3.7181,3.7176,3.7173,3.7201,3.7201,3.72,3.7181,0,3.7218,3.7208,3.7213,3.7202,3.7198,3.7206,3.7201,3.72,3.7202,3.7199,3.7201,3.7197,3.7205,3.7204,3.7199,3.72,3.719,3.7202,3.7195,3.7195,3.7195,3.717,3.7165,3.7147,3.7179,3.7178,3.7178,0,3.7197,3.7195,3.7184,3.7185,3.7184,3.7179,3.7176,3.7173,3.7173,3.7174,3.7173,3.7178,3.7171,3.718,3.7171,3.7178,3.7176,3.7176,3.7175,3.7175,3.7185,3.7168,3.7141,3.7138,3.7174,3.7174,3.7175,0,3.7179,3.7174,3.7166,3.7166,3.7167,3.7163,3.7164,3.7164,3.7162,3.716,3.7158,3.7155,3.7153,3.715,3.7154,3.7161,3.7143,3.7153,3.7144,3.7144,3.714,3.714,3.7112,3.7139,3.7139,3.7139,3.7139,0,3.7159,3.7151,3.7158,3.7153,3.7145,3.7151,3.7142,3.7143,3.7143,3.7138,3.7145,3.714,3.7146,3.7141,3.7144,3.7135,3.7134,3.7135,3.7136,3.7134,3.7134,3.7132,3.7133,3.7138,3.7139,3.7139,3.7139,0,3.7137,3.7141,3.7133,3.7136,3.7136,3.7129,3.7131,3.7126,3.7128,3.7122,3.7121,3.7124,3.7119,3.7123,3.7118,3.7119,3.7107,3.711,3.7108,3.7108,3.7098,3.7099,3.7068,3.7064,3.7094,3.7094,3.7093,0,3.7124,3.7119,3.712,3.7118,3.7118,3.7113,3.7111,3.7116,3.7114,3.7112,3.7107,3.7103,3.71,3.7091,3.7092,3.7088,3.7091,3.708,3.709,3.7088,3.709,3.709,3.7089,3.7078,3.7077,3.7077,3.7077,0,3.7101,3.7103,3.71,3.7097,3.7094,3.7092,3.7091,3.7088,3.7093,3.709,3.7085,3.7082,3.7076,3.7072,3.7068,3.7068,3.7073,3.7074,3.7071,3.7069,3.7068,3.7068,3.7102,3.7074,3.7075,3.7075,3.7075,3.7075,3.7083,3.7078,3.7078,3.7074,3.7073,3.7071,3.7067,3.7069,3.7065,3.7061,3.7064,3.7058,3.7056,3.7052,3.7051,3.7046,3.705,3.7047,3.7046,3.7045,3.7043,3.7069,3.7045,3.7045,3.7045,3.7045,3.7045,0,3.7059,3.7059,3.7055,3.7053,3.705,3.7055,3.7054,3.705,3.7045,3.7043,3.704,3.7033,3.7029,3.703,3.7025,3.702,3.7023,3.7019,3.7019,3.7019,3.704,3.7042,3.7017,3.7017,3.7017,3.7017,3.7017,3.7017,3.7046,3.7038,3.704,3.7031,3.7031,3.7026,3.7024,3.7022,3.7021,3.7014,3.701,3.7011,3.701,3.7005,3.7001,3.7001,3.6999,3.6994,3.6995,3.7015,3.7018,3.702,3.7022,3.6994,3.6994,3.6975,3.6975,3.6975]}]]